Volver al catálogo

STARLINK-35224

ActivoComunicacionesSSO
NORAD 65811·PAYLOAD·🇺🇸 United States

Lanzado Sep 26, 2025 desde Vandenberg Space Force Base

Loading…

Próximos Pases (próximas 24 horas)

TLE

ActualizadoSource: CelesTrak SupGP

Época: Sep 14, 2026, 21:13 UTC

1 65811C 25218W   26257.88451389  .00027669  00000+0  85923-3 0  2573
2 65811  97.2843 115.3043 0001350  93.9036 156.0794 15.33413307    15

Sigue STARLINK-35224 en tiempo real con AllMySat

Download on the App Store